Regional Weather Roundup
Issued by NWS Midland/Odessa, TX

Skip options and go directly to product.
Home | Oldest Version | Next Version | Current Version | All | Text Only | Save Text | Print | Product List | Glossary On

Skip product version selection by date and time.   
558
ASUS44 KMAF 220402
RWRMAF
MIDLAND AREA WEATHER ROUNDUP
NATIONAL WEATHER SERVICE MIDLAND TX
1100 PM CDT TUE OCT 21 2014

...IN SOUTHWEST TEXAS AND SOUTHEAST NEW MEXICO...

CITY           SKY/WX    TMP DP  RH WIND       PRES   REMARKS
ALPINE         CLOUDY    59  55  87 CALM      30.17R
ANDREWS        CLOUDY    65  56  74 S3        30.09S
ARTESIA        NOT AVBL
BIG SPRING     MOCLDY    65  51  61 E5        30.09S
CARLSBAD       CLOUDY    65  61  87 SE5       30.07R
DRYDEN           N/A     66  64  93 E3        30.05R
FORT STOCKTON  MOCLDY    62  59  90 SE9       30.07S
GUAD PASS      CLOUDY    56  55  97 E25       30.13F FOG
HOBBS          CLOUDY    61  59  94 S5        30.11S
MARFA          MOCLDY    55  54  94 SE6       30.15R
MIDLAND AIRPK  MOCLDY    70  57  64 S7        30.08S
MIDLAND INTL   CLOUDY    69  58  67 S8        30.08R
ODESSA         CLOUDY    66  58  75 S6        30.09R
PECOS          MOCLDY    63  60  90 E8        30.05R
PRESIDIO       FAIR      65  60  85 NE9       30.04R
SEMINOLE       CLOUDY    62  59  91 CALM      30.10S
SNYDER         PTCLDY    63  51  64 E5        30.08S
WINK           CLOUDY    65  62  90 SE9       30.05F
$$
...OTHER STATIONS IN TEXAS...

CITY           SKY/WX    TMP DP  RH WIND       PRES   REMARKS
ABILENE        MOCLDY    66  50  56 SE8       30.08R
AMARILLO       CLEAR     59  49  69 S10       30.09R
AUSTIN         MOCLDY    59  54  83 CALM      30.05S
BROWNSVILLE    CLOUDY    78  71  79 NE7       29.96R
CORPUS CHRISTI MOCLDY    74  67  78 E7        30.00R
DALLAS FTW     CLEAR     69  58  67 SE5       30.06S
DEL RIO        CLOUDY    70  68  93 CALM      30.01R
EL PASO        PTCLDY    64  53  67 E7        30.04R
HOUSTON INT    PTCLDY    66  61  84 CALM      30.05R
LUBBOCK        MOCLDY    65  52  62 S8        30.09R
SAN ANGELO     CLOUDY    73  53  49 SE8       30.06R
SAN ANTONIO    MOCLDY    70  47  43 NE5       30.05R
WACO           PTCLDY    65  58  78 CALM      30.07R
WICHITA FALLS  NOT AVBL
$$
...OTHER LOCATIONS IN NEW MEXICO...

CITY           SKY/WX    TMP DP  RH WIND       PRES   REMARKS
ALAMAGORDO     NOT AVBL
ALBUQUERQUE    PTCLDY    57  47  69 SE6       30.11R
CANNON AFB     PTCLDY    58  56  94 S6        30.11S
CLOVIS         CLOUDY    57  54  88 SW6       30.14S
HOLLOMAN AFB   PTCLDY    59  53  80 S3        30.05R
ROSWELL        CLOUDY    61  59  93 S12       30.08S
RUIDOSO        MOCLDY    50  50 100 SE6       30.21R FOG
SANTA FE       MOCLDY    54  46  74 SE7       30.14R
TRUTH OR CONSE CLEAR     60  52  74 CALM      30.08R
TUCUMCARI      CLOUDY    60  55  83 SW10      30.08R
$$

USA.gov is the U.S. government's official web portal to all federal, state and local government web resources and services.